Tracking 29933 objects as of 3-Dec-2024
HD Live streaming from Space Station
objects crossing your sky now

SL-8 DEB *

Track SL-8 DEB * now!
10-day predictions


NORAD ID: 14865
Int'l Code: 1975-094E
Perigee: 646.6 km
Apogee: 648.3 km
Inclination: 74.0 °
Period: 97.5 minutes
Semi major axis: 7018 km
RCS: 0.0088 m2 (small)
Launch date: September 30, 1975
Source: Commonwealth of Independent States (former USSR) (CIS)
Launch site: PLESETSK MISSILE AND SPACE COMPLEX (PKMTR)

Note: This is SATELLITE DEBRIS
Your satellite tracking list
Your tracking list is empty




NASA's NSSDC Master Catalog

Two Line Element Set (TLE):
1 14865U 75094E   24337.93372594  .00009577  00000-0  13765-2 0  9992
2 14865  74.0214 209.5885 0001261 286.9778  84.5664 14.76526544665473
Source of the keplerian elements: AFSPC